When you browse on this site, cookies collect data to enhance your experience and personalize the content and advertising you see.
Visit our Privacy Policy to learn more. By continuing to use the site, you agree to this use of cookies and data.

Stündliche Wetter Dalat

Heute, 12 Juli, Sonntag

Zeit Temperatur Niederschläge Wind Luftdruck Luftfeuchtigkeit
00:00 +19°C° 0 mm 1 m/S 651 mmHg 96%
01:00 +19°C° 0 mm 1 m/S 650 mmHg 94%
02:00 +19°C° 0 mm 1 m/S 650 mmHg 92%
03:00 +19°C° 0 mm 1 m/S 650 mmHg 91%
04:00 +17°C° 0 mm 0 m/S 649 mmHg 89%
05:00 +18°C° 0 mm 0 m/S 650 mmHg 87%
06:00 +19°C° 0 mm 0 m/S 651 mmHg 85%
07:00 +19°C° 0 mm 0 m/S 651 mmHg 83%
08:00 +22°C° 0 mm 0 m/S 652 mmHg 74%
09:00 +26°C° 0 mm 1 m/S 653 mmHg 64%
10:00 +28°C° 0 mm 1 m/S 653 mmHg 55%
11:00 +27°C° 1.2 mm 1 m/S 653 mmHg 64%
12:00 +26°C° 1.2 mm 1 m/S 652 mmHg 73%
13:00 +26°C° 1.2 mm 1 m/S 651 mmHg 83%
14:00 +25°C° 1.6 mm 1 m/S 651 mmHg 84%
15:00 +25°C° 1.6 mm 1 m/S 650 mmHg 85%
16:00 +25°C° 1.6 mm 1 m/S 650 mmHg 86%
17:00 +23°C° 0.3 mm 1 m/S 650 mmHg 90%
18:00 +22°C° 0.3 mm 1 m/S 650 mmHg 93%
19:00 +19°C° 0.3 mm 0 m/S 649 mmHg 96%
20:00 +18°C° 0 mm 0 m/S 650 mmHg 95%
21:00 +18°C° 0 mm 0 m/S 650 mmHg 95%
22:00 +17°C° 0 mm 0 m/S 651 mmHg 94%
23:00 +17°C° 0 mm 0 m/S 651 mmHg 93%

Morgen, 13 Juli, Montag

Zeit Temperatur Niederschläge Wind Luftdruck Luftfeuchtigkeit
00:00 +17°C° 0 mm 0 m/S 650 mmHg 92%
01:00 +17°C° 0 mm 0 m/S 650 mmHg 91%
02:00 +17°C° 0 mm 0 m/S 650 mmHg 90%
03:00 +17°C° 0 mm 0 m/S 650 mmHg 89%
04:00 +17°C° 0 mm 0 m/S 650 mmHg 88%
05:00 +17°C° 0 mm 0 m/S 650 mmHg 87%
06:00 +18°C° 0 mm 0 m/S 650 mmHg 85%
07:00 +18°C° 0 mm 0 m/S 651 mmHg 84%
08:00 +20°C° 0 mm 0 m/S 652 mmHg 75%
09:00 +23°C° 0 mm 0 m/S 652 mmHg 65%
10:00 +25°C° 0 mm 0 m/S 653 mmHg 56%
11:00 +27°C° 0.3 mm 1 m/S 653 mmHg 61%
12:00 +27°C° 0.3 mm 1 m/S 652 mmHg 66%
13:00 +27°C° 0.3 mm 2 m/S 652 mmHg 71%
14:00 +26°C° 1.6 mm 1 m/S 651 mmHg 77%
15:00 +25°C° 1.6 mm 1 m/S 650 mmHg 83%
16:00 +24°C° 1.6 mm 1 m/S 650 mmHg 89%
17:00 +23°C° 0.6 mm 1 m/S 650 mmHg 92%
18:00 +22°C° 0.6 mm 1 m/S 650 mmHg 94%
19:00 +20°C° 0.6 mm 1 m/S 650 mmHg 97%
20:00 +18°C° 0.3 mm 0 m/S 650 mmHg 97%
21:00 +18°C° 0.3 mm 0 m/S 651 mmHg 97%
22:00 +17°C° 0.3 mm 0 m/S 651 mmHg 97%
23:00 +17°C° 0 mm 0 m/S 651 mmHg 97%

übermorgen, 14 Juli, Dienstag

Zeit Temperatur Niederschläge Wind Luftdruck Luftfeuchtigkeit
00:00 +19°C° 0 mm 1 m/S 651 mmHg 97%
01:00 +18°C° 0 mm 1 m/S 650 mmHg 97%
02:00 +18°C° 0 mm 1 m/S 650 mmHg 96%
03:00 +18°C° 0 mm 1 m/S 650 mmHg 95%
04:00 +18°C° 0 mm 1 m/S 649 mmHg 94%
05:00 +17°C° 0 mm 0 m/S 650 mmHg 92%
06:00 +18°C° 0 mm 0 m/S 650 mmHg 90%
07:00 +19°C° 0 mm 0 m/S 651 mmHg 87%
08:00 +21°C° 0 mm 0 m/S 652 mmHg 77%
09:00 +25°C° 0 mm 1 m/S 653 mmHg 67%
10:00 +27°C° 0 mm 1 m/S 653 mmHg 57%
11:00 +27°C° 0.6 mm 1 m/S 653 mmHg 64%
12:00 +26°C° 0.6 mm 1 m/S 652 mmHg 71%
13:00 +26°C° 0.6 mm 1 m/S 651 mmHg 78%
14:00 +25°C° 1.9 mm 1 m/S 651 mmHg 81%
15:00 +25°C° 1.9 mm 1 m/S 650 mmHg 85%
16:00 +24°C° 1.9 mm 1 m/S 650 mmHg 88%
17:00 +23°C° 0.8 mm 1 m/S 650 mmHg 91%
18:00 +22°C° 0.8 mm 1 m/S 650 mmHg 94%
19:00 +21°C° 0.8 mm 1 m/S 650 mmHg 97%
20:00 +20°C° 0.1 mm 1 m/S 650 mmHg 98%
21:00 +20°C° 0.1 mm 1 m/S 651 mmHg 98%
22:00 +20°C° 0.1 mm 1 m/S 651 mmHg 98%
23:00 +20°C° 0 mm 1 m/S 651 mmHg 98%

15 Juli, Mittwoch

Zeit Temperatur Niederschläge Wind Luftdruck Luftfeuchtigkeit
00:00 +20°C° 0 mm 1 m/S 650 mmHg 98%
01:00 +20°C° 0 mm 1 m/S 650 mmHg 98%
02:00 +19°C° 0 mm 1 m/S 650 mmHg 97%
03:00 +17°C° 0 mm 0 m/S 650 mmHg 97%
04:00 +17°C° 0 mm 0 m/S 649 mmHg 97%
05:00 +18°C° 0.1 mm 0 m/S 650 mmHg 96%
06:00 +18°C° 0.1 mm 0 m/S 650 mmHg 94%
07:00 +19°C° 0.1 mm 0 m/S 651 mmHg 93%
08:00 +23°C° 0.4 mm 1 m/S 651 mmHg 87%
09:00 +24°C° 0.4 mm 1 m/S 652 mmHg 80%
10:00 +26°C° 0.4 mm 1 m/S 652 mmHg 73%
11:00 +26°C° 1.2 mm 1 m/S 652 mmHg 76%
12:00 +26°C° 1.2 mm 1 m/S 651 mmHg 79%
13:00 +26°C° 1.2 mm 1 m/S 651 mmHg 83%
14:00 +26°C° 1.6 mm 1 m/S 650 mmHg 83%
15:00 +25°C° 1.6 mm 1 m/S 650 mmHg 84%
16:00 +25°C° 1.6 mm 1 m/S 649 mmHg 85%
17:00 +24°C° 0.4 mm 1 m/S 649 mmHg 89%
18:00 +20°C° 0.4 mm 0 m/S 649 mmHg 93%
19:00 +19°C° 0.4 mm 0 m/S 649 mmHg 97%
20:00 +19°C° 0 mm 0 m/S 650 mmHg 98%
21:00 +19°C° 0 mm 0 m/S 650 mmHg 98%
22:00 +21°C° 0 mm 1 m/S 650 mmHg 98%
23:00 +18°C° 0 mm 0 m/S 650 mmHg 98%

16 Juli, Donnerstag

Zeit Temperatur Niederschläge Wind Luftdruck Luftfeuchtigkeit
00:00 +18°C° 0 mm 0 m/S 650 mmHg 98%
01:00 +18°C° 0 mm 0 m/S 649 mmHg 98%
02:00 +18°C° 0 mm 0 m/S 649 mmHg 98%
03:00 +18°C° 0 mm 0 m/S 649 mmHg 98%
04:00 +17°C° 0 mm 0 m/S 649 mmHg 98%
05:00 +18°C° 0 mm 0 m/S 650 mmHg 97%
06:00 +19°C° 0 mm 0 m/S 650 mmHg 95%
07:00 +19°C° 0 mm 0 m/S 651 mmHg 94%
08:00 +21°C° 0.1 mm 0 m/S 651 mmHg 84%
09:00 +25°C° 0.1 mm 1 m/S 652 mmHg 74%
10:00 +27°C° 0.1 mm 1 m/S 653 mmHg 64%
11:00 +27°C° 1.5 mm 1 m/S 652 mmHg 72%
12:00 +26°C° 1.5 mm 1 m/S 651 mmHg 79%
13:00 +25°C° 1.5 mm 1 m/S 651 mmHg 87%
14:00 +25°C° 1.4 mm 1 m/S 650 mmHg 88%
15:00 +24°C° 1.4 mm 1 m/S 650 mmHg 88%
16:00 +24°C° 1.4 mm 1 m/S 649 mmHg 89%
17:00 +23°C° 0.3 mm 1 m/S 649 mmHg 92%
18:00 +22°C° 0.3 mm 1 m/S 649 mmHg 95%
19:00 +21°C° 0.3 mm 1 m/S 649 mmHg 98%
20:00 +20°C° 0 mm 1 m/S 650 mmHg 98%
21:00 +18°C° 0 mm 0 m/S 650 mmHg 98%
22:00 +18°C° 0 mm 0 m/S 651 mmHg 98%
23:00 +18°C° 0 mm 0 m/S 650 mmHg 98%

17 Juli, Freitag

Zeit Temperatur Niederschläge Wind Luftdruck Luftfeuchtigkeit
00:00 +18°C° 0 mm 0 m/S 650 mmHg 98%
01:00 +17°C° 0 mm 0 m/S 650 mmHg 98%
02:00 +17°C° 0 mm 0 m/S 650 mmHg 97%
03:00 +19°C° 0 mm 1 m/S 650 mmHg 97%
04:00 +19°C° 0 mm 1 m/S 650 mmHg 97%
05:00 +20°C° 0 mm 1 m/S 650 mmHg 96%
06:00 +19°C° 0 mm 0 m/S 651 mmHg 94%
07:00 +19°C° 0 mm 0 m/S 651 mmHg 92%
08:00 +23°C° 0.1 mm 1 m/S 652 mmHg 83%
09:00 +25°C° 0.1 mm 1 m/S 653 mmHg 73%
10:00 +27°C° 0.1 mm 1 m/S 653 mmHg 63%
11:00 +27°C° 1.4 mm 1 m/S 653 mmHg 69%
12:00 +26°C° 1.4 mm 1 m/S 652 mmHg 76%
13:00 +24°C° 1.4 mm 0 m/S 651 mmHg 82%
14:00 +26°C° 1.2 mm 1 m/S 651 mmHg 83%
15:00 +25°C° 1.2 mm 1 m/S 651 mmHg 84%
16:00 +25°C° 1.2 mm 1 m/S 650 mmHg 85%
17:00 +21°C° 0.9 mm 0 m/S 650 mmHg 89%
18:00 +20°C° 0.9 mm 0 m/S 650 mmHg 93%
19:00 +19°C° 0.9 mm 0 m/S 650 mmHg 97%
20:00 +18°C° 0.5 mm 0 m/S 650 mmHg 97%
21:00 +18°C° 0.5 mm 0 m/S 651 mmHg 97%
22:00 +18°C° 0.5 mm 0 m/S 651 mmHg 98%
23:00 +17°C° 0.4 mm 0 m/S 651 mmHg 97%
Mehr zeigen